STARLINK-11440 [DTC] (62513 NORAD) Tracking and Keplerian Element Data

This shows tracking and keplerian element data for the satellite.

Feedback or suggestion? Click here.




ElementValue
Catalog62513
NameSTARLINK-11440 [DTC]
Epoch Orbit541
Epoch Day35.07644789
Epoch Year2025
RAAN314.6527
Inclination42.9981
Eccentricity1.25E-05
Argument of Perigee29.2691
Mean Anonmoly330.8186
Mean Motion15.77868388
Decay Rate4.913E-05
L11 62513U 25004C 25035.07644789 .00004913 00000+0 31054-4 0 9991
L22 62513 42.9981 314.6527 0000125 29.2691 330.8186 15.77868388 5417



Live tracking and technical data element details for STARLINK-11440 [DTC] (NORAD 62513). STARLINK-11440 [DTC] can be tracked NOW for your location showing map with azimuth and elevation plus other details from your city location.







IsCatalogInMostPopularTable: catalog: 62513, numindb: 15
Update: records affected: 1



GetName: 62513 STARLINK-11440 [DTC]

Hit Count: updated at: Mon, 19 May 2025 03:24:32 GMT